Вернуться в каталог

STARLINK-33572

АктивенСвязьVLEO
NORAD 62767·PAYLOAD·🇺🇸 United States

Запущен Jan 21, 2025 с Vandenberg Space Force Base

Loading…

Ближайшие Пролёты (ближайшие 24 часа)

TLE

СвежийSource: CelesTrak SupGP

Эпоха: Sep 14, 2026, 20:35 UTC

1 62767C 25015K   26257.85812500 -.00052868  00000+0 -15614-2 0  2578
2 62767  53.1584 160.3161 0001276  94.5833 230.3077 15.34428141    18

Отслеживайте STARLINK-33572 в реальном времени с AllMySat

Download on the App Store